sat.trackr.live / text

‹ back to catalog

BALKAN-2

NORAD 69024 · 2026-100AW

PAYLOAD ACTIVE UNKNOWN

§ Identity

Operator
Country
BUL
Launch date
2026-05-03
Launch site
AFWTR
Launch vehicle
Mass (kg)
RCS (m²)

External: N2YO · Heavens-Above · Gunter

§ Orbital elements

Epoch: 2026-05-24T23:53:34.054656Z

Period
94.75 min
Inclination
97.4092°
Eccentricity
0.0005070
Mean motion
15.19818194 rev/d
Perigee alt
502.9 km
Apogee alt
509.9 km
Semi-major
6,884.5 km
B*
2.3266e-4
RAAN
43.2324°
Arg perigee
84.2785°
Mean anomaly
275.9028°
Rev number
328

§ Raw data

BALKAN-21 69024U 26100AW  26144.99553304  .00004918  00000+0  23266-3 0  99982 69024  97.4092  43.2324 0005070  84.2785 275.9028 15.19818194  3281

JSON: /api/v1/satellites/69024 · /tle

For live sub-satellite position, see the globe view (requires WebGL).

§ Visibility from observer

Set your observer location to see the next 7 days of passes ≥ 10°. The values pass through the URL so the page stays shareable.

No JS? Fill the form by hand. The geolocation button needs JavaScript.